Hourly Data Report for October 02, 2014

All times are specified in Local Standard Time (LST). Add 1 hour to adjust for Daylight Saving Time where and when it is observed.

GRISE FIORD CLIMATE
NUNAVUT

76°25'22.040" N
82°54'08.020" W
44.50 m
2402351
71971
NGC

Download Data

Hourly Data (October 2014)
Hourly Data Report for October 2, 2014
Temp Definition
°C
Dew Point Temp Definition
°C
Rel Hum Definition
%
Wind Dir Definition
10's deg

Wind Spd Definition
km/h
Visibility Definition
km
Stn Press Definition
kPa
Hmdx Definition


Wind Chill Definition


Weather Definition


TIME
00:00 -4.0 -13.0 50 35 20   100.38   -10 LegendNANA
01:00 -5.1 -13.1 54 1 51   100.43   -15 LegendNANA
02:00 -5.0 -13.1 53 1 48   100.49   -15 LegendNANA
03:00 -4.9 -13.0 53 2 52   100.49   -15 LegendNANA
04:00 -5.1 -13.0 54 1 60   100.45   -16 LegendNANA
05:00 -4.0 -11.7 55 11 14   100.57   -9 LegendNANA
06:00 -5.0 -11.3 61 5 9   100.61   -9 LegendNANA
07:00 -5.8 -11.5 64 4 13   100.65   -11 LegendNANA
08:00 -4.4 -11.9 56 12 9   100.66   -8 LegendNANA
09:00 -3.6 -13.3 47 36 41   100.61   -12 LegendNANA
10:00 -2.7 -12.6 47 15 16   100.69   -8 LegendNANA
11:00 -3.6 -10.6 58 14 9   100.74   -7 LegendNANA
12:00 -3.3 -10.1 59 14 14   100.73   -8 LegendNANA
13:00 -2.7 -12.2 48 15 10   100.78   -7 LegendNANA
14:00 -2.4 -11.3 50 31 15   100.82   -7 LegendNANA
15:00 -3.0 -9.0 63 16 15   100.86   -8 LegendNANA
16:00 -3.3 -9.8 61 15 19   100.90   -9 LegendNANA
17:00 -3.3 -10.0 60 17 9   100.96   -7 LegendNANA
18:00 -4.5 -9.9 66 15 11   100.98   -9 LegendNANA
19:00 -3.9 -10.4 61 15 19   100.97   -10 LegendNANA
20:00 -3.9 -10.0 62 20 10   101.02   -8 LegendNANA
21:00 -4.4 -12.1 55 25 12   101.00   -9 LegendNANA
22:00 -4.4 -12.0 55 26 13   101.00   -9 LegendNANA
23:00 -4.4 -13.0 51 27 16   100.99   -10 LegendNANA

Notes on Data Quality.

Legend

  • E = Estimated
  • M = Missing
  • NA = Not Available
  • ‡ = Partner data that is not subject to review by the National Climate Archives
Date modified: